WC4PEM-8 Weather Reports


Display with metric or nautical units.
time (UTC)temp
F
wind
direction
speed
MPH
gust
MPH
rain 1hr
in
rain 24hr
in
rain mn
in
humidity
%
barometer
mb
20260506145554 82 205 6.0 9.0 0.00 0.00 0.00 69 1017.1
20260506145506 81 178 9.0 13.0 0.00 0.00 0.00 69 1017.1
20260506145054 82 183 8.0 13.0 0.00 0.00 0.00 69 1017.1
20260506144554 81 178 9.0 13.0 0.00 0.00 0.00 69 1017.1
20260506144054 81 153 8.0 12.0 0.00 0.00 0.00 70 1017.1
20260506143630 81 166 7.0 11.0 0.00 0.00 0.00 69 1017.1
20260506143554 81 166 7.0 11.0 0.00 0.00 0.00 69 1017.1
20260506143158 81 165 6.0 11.0 0.00 0.00 0.00 69 1017.1
20260506143054 81 165 6.0 11.0 0.00 0.00 0.00 69 1017.1
20260506142801 80 171 7.0 11.0 0.00 0.00 0.00 70 1017.1
20260506142554 80 171 7.0 11.0 0.00 0.00 0.00 70 1017.1
20260506142420 78 153 7.0 11.0 0.00 0.00 0.00 79 1017.1
20260506142308 78 153 7.0 11.0 0.00 0.00 0.00 79 1017.1
20260506142250 80 191 6.0 11.0 0.00 0.00 0.00 70 1017.2
20260506142213 78 153 7.0 11.0 0.00 0.00 0.00 79 1017.1
20260506142119 78 153 7.0 11.0 0.00 0.00 0.00 79 1017.1
20260506142054 80 191 6.0 11.0 0.00 0.00 0.00 70 1017.2
20260506142024 78 153 7.0 11.0 0.00 0.00 0.00 79 1017.1
20260506141930 78 153 7.0 11.0 0.00 0.00 0.00 79 1017.1
20260506141840 78 153 7.0 11.0 0.00 0.00 0.00 79 1017.1
20260506141809 80 202 6.0 9.0 0.00 0.00 0.00 72 1017.2
20260506141554 80 202 6.0 9.0 0.00 0.00 0.00 72 1017.2
20260506141309 80 169 6.0 10.0 0.00 0.00 0.00 73 1017.2
20260506141054 80 169 6.0 10.0 0.00 0.00 0.00 73 1017.2
20260506140554 79 194 6.0 10.0 0.00 0.00 0.00 74 1017.3
20260506140306 79 196 6.0 11.0 0.00 0.00 0.00 75 1017.3
20260506140157 79 196 6.0 11.0 0.00 0.00 0.00 75 1017.3
20260506140054 79 196 6.0 11.0 0.00 0.00 0.00 75 1017.3
20260506135554 78 147 7.0 11.0 0.00 0.00 0.00 77 1017.2
20260506135137 78 153 7.0 11.0 0.00 0.00 0.00 79 1017.1
20260506135054 78 153 7.0 11.0 0.00 0.00 0.00 79 1017.1
20260506134554 78 171 7.0 12.0 0.00 0.00 0.00 78 1017.1
20260506134217 77 144 7.0 11.0 0.00 0.00 0.00 80 1017.1
20260506134054 77 144 7.0 11.0 0.00 0.00 0.00 80 1017.1
20260506133956 76 150 7.0 10.0 0.00 0.00 0.00 81 1017.1
20260506133554 77 186 7.0 11.0 0.00 0.00 0.00 81 1017.1
20260506133129 76 150 7.0 10.0 0.00 0.00 0.00 81 1017.1
20260506133054 76 150 7.0 10.0 0.00 0.00 0.00 81 1017.1
20260506132722 76 139 7.0 11.0 0.00 0.00 0.00 81 1017.1
20260506132554 76 139 7.0 11.0 0.00 0.00 0.00 81 1017.1
20260506132405 76 132 7.0 12.0 0.00 0.00 0.00 81 1017.1
20260506132128 76 132 7.0 12.0 0.00 0.00 0.00 81 1017.1
20260506132054 76 132 7.0 12.0 0.00 0.00 0.00 81 1017.1
20260506131554 76 137 7.0 11.0 0.00 0.00 0.00 82 1017.0
20260506131215 76 146 6.0 10.0 0.00 0.00 0.00 82 1017.0
20260506131137 76 146 6.0 10.0 0.00 0.00 0.00 82 1017.0
20260506131054 76 146 6.0 10.0 0.00 0.00 0.00 82 1017.0
20260506130709 75 153 7.0 10.0 0.00 0.00 0.00 83 1016.8
20260506130554 75 153 7.0 10.0 0.00 0.00 0.00 83 1016.8
20260506130544 75 156 8.0 12.0 0.00 0.00 0.00 83 1016.8
20260506130138 75 156 8.0 12.0 0.00 0.00 0.00 83 1016.8
20260506130054 75 156 8.0 12.0 0.00 0.00 0.00 83 1016.8
20260506125554 75 151 8.0 14.0 0.00 0.00 0.00 84 1016.8
20260506125224 74 153 8.0 13.0 0.00 0.00 0.00 85 1016.7
20260506125054 74 153 8.0 13.0 0.00 0.00 0.00 85 1016.7
20260506124924 72 164 6.0 13.0 0.00 0.00 0.00 87 1016.4
20260506124554 74 148 8.0 14.0 0.00 0.00 0.00 85 1016.6
20260506124054 73 168 7.0 11.0 0.00 0.00 0.00 86 1016.5
20260506123625 72 164 6.0 13.0 0.00 0.00 0.00 87 1016.4
20260506123554 73 144 7.0 12.0 0.00 0.00 0.00 87 1016.4
20260506123054 72 164 6.0 13.0 0.00 0.00 0.00 87 1016.4
20260506122554 72 153 6.0 10.0 0.00 0.00 0.00 88 1016.5
20260506122518 70 109 4.0 8.0 0.00 0.00 0.00 90 1016.4
20260506122125 71 178 6.0 8.0 0.00 0.00 0.00 89 1016.6
20260506122054 71 178 6.0 8.0 0.00 0.00 0.00 89 1016.6
20260506121554 71 134 5.0 9.0 0.00 0.00 0.00 89 1016.3
20260506121159 70 126 4.0 8.0 0.00 0.00 0.00 89 1016.3
20260506121054 70 126 4.0 8.0 0.00 0.00 0.00 89 1016.3
20260506120554 70 109 4.0 8.0 0.00 0.00 0.00 90 1016.4
20260506120132 70 147 4.0 7.0 0.00 0.00 0.00 90 1016.3
20260506120054 70 147 4.0 7.0 0.00 0.00 0.00 90 1016.3
20260506115554 70 153 4.0 7.0 0.00 0.00 0.00 90 1016.2
20260506115429 69 156 4.0 7.0 0.00 0.00 0.00 91 1016.4
20260506115141 69 156 4.0 7.0 0.00 0.00 0.00 91 1016.4
20260506115054 69 156 4.0 7.0 0.00 0.00 0.00 91 1016.4
20260506114554 69 142 4.0 5.0 0.00 0.00 0.00 91 1016.2
20260506114054 68 146 4.0 6.0 0.00 0.00 0.00 91 1016.1
20260506113554 68 151 3.0 6.0 0.00 0.00 0.00 91 1016.1
20260506113054 68 151 3.0 6.0 0.00 0.00 0.00 91 1016.2
20260506112554 68 146 3.0 4.0 0.00 0.00 0.00 91 1016.1
20260506112054 67 133 3.0 4.0 0.00 0.00 0.00 91 1016.1
20260506111554 67 134 3.0 5.0 0.00 0.00 0.00 91 1016.1
20260506111054 67 144 3.0 5.0 0.00 0.00 0.00 90 1016.0
20260506110554 67 137 3.0 5.0 0.00 0.00 0.00 90 1016.0
20260506110054 67 142 3.0 5.0 0.00 0.00 0.00 90 1016.0
20260506105554 67 137 2.0 4.0 0.00 0.00 0.00 90 1015.9
20260506105054 67 141 3.0 4.0 0.00 0.00 0.00 90 1015.7
20260506104554 67 163 3.0 6.0 0.00 0.00 0.00 90 1015.7
20260506104359 66 123 3.0 5.0 0.00 0.00 0.00 89 1015.5
20260506104315 67 134 3.0 5.0 0.00 0.00 0.00 90 1015.5
20260506104054 67 146 3.0 5.0 0.00 0.00 0.00 90 1015.6
20260506103554 67 132 3.0 5.0 0.00 0.00 0.00 90 1015.6
20260506103054 67 134 3.0 5.0 0.00 0.00 0.00 90 1015.5
20260506102554 67 133 3.0 4.0 0.00 0.00 0.00 90 1015.5
20260506102054 67 148 3.0 4.0 0.00 0.00 0.00 90 1015.6
20260506101554 66 139 3.0 5.0 0.00 0.00 0.00 90 1015.6
20260506101054 66 149 3.0 4.0 0.00 0.00 0.00 90 1015.5
20260506100554 66 140 3.0 5.0 0.00 0.00 0.00 90 1015.5
20260506100055 66 123 3.0 5.0 0.00 0.00 0.00 89 1015.5
20260506095556 66 126 2.0 3.0 0.00 0.00 0.00 88 1015.6
20260506095055 66 126 2.0 3.0 0.00 0.00 0.00 88 1015.6
20260506094555 66 132 2.0 4.0 0.00 0.00 0.00 88 1015.6
20260506094055 67 146 2.0 3.0 0.00 0.00 0.00 87 1015.6
20260506093555 67 123 2.0 3.0 0.00 0.00 0.00 87 1015.6
20260506093055 67 137 2.0 3.0 0.00 0.00 0.00 86 1015.6
20260506092555 68 142 2.0 3.0 0.00 0.00 0.00 85 1015.4
20260506092055 68 123 2.0 3.0 0.00 0.00 0.00 85 1015.5
20260506091555 68 133 2.0 3.0 0.00 0.00 0.00 85 1015.4
20260506091339 68 137 2.0 3.0 0.00 0.00 0.00 85 1015.4
20260506091055 68 137 2.0 3.0 0.00 0.00 0.00 85 1015.4
20260506090555 68 157 2.0 5.0 0.00 0.00 0.00 85 1015.5
20260506090055 69 151 3.0 4.0 0.00 0.00 0.00 84 1015.4
20260506085555 69 158 3.0 6.0 0.00 0.00 0.00 84 1015.3
20260506085055 69 178 4.0 6.0 0.00 0.00 0.00 84 1015.4
20260506084555 68 150 4.0 7.0 0.00 0.00 0.00 84 1015.2
20260506084503 68 150 3.0 6.0 0.00 0.00 0.00 85 1015.2
20260506084055 68 157 3.0 6.0 0.00 0.00 0.00 84 1015.2
20260506083555 68 150 3.0 6.0 0.00 0.00 0.00 85 1015.2
20260506083055 67 188 3.0 6.0 0.00 0.00 0.00 86 1015.3
20260506082950 66 126 3.0 5.0 0.00 0.00 0.00 89 1015.4
20260506082555 67 168 3.0 5.0 0.00 0.00 0.00 87 1015.3
20260506082209 66 126 3.0 5.0 0.00 0.00 0.00 89 1015.4
20260506082055 66 126 3.0 5.0 0.00 0.00 0.00 89 1015.4
20260506081732 65 132 3.0 5.0 0.00 0.00 0.00 89 1015.3
20260506081555 65 132 3.0 5.0 0.00 0.00 0.00 89 1015.3
20260506081055 65 134 2.0 4.0 0.00 0.00 0.00 88 1015.2
20260506081049 65 139 1.0 4.0 0.00 0.00 0.00 86 1015.5
20260506080555 65 139 1.0 4.0 0.00 0.00 0.00 86 1015.5
20260506080127 65 142 2.0 3.0 0.00 0.00 0.00 87 1015.6
20260506073055 66 119 2.0 4.0 0.00 0.00 0.00 86 1015.5
20260506072555 66 148 2.0 3.0 0.00 0.00 0.00 86 1015.5
20260506072055 66 144 2.0 2.0 0.00 0.00 0.00 85 1015.6
20260506071555 66 142 2.0 4.0 0.00 0.00 0.00 85 1015.7
20260506071550 66 157 2.0 4.0 0.00 0.00 0.00 85 1015.7
20260506071129 66 137 2.0 3.0 0.00 0.00 0.00 85 1015.7
20260506071055 66 137 2.0 3.0 0.00 0.00 0.00 85 1015.7
20260506070555 66 140 2.0 3.0 0.00 0.00 0.00 85 1015.7
20260506062055 66 126 0.0 2.0 0.00 0.00 0.00 83 1016.0
20260506061555 66 178 1.0 1.0 0.00 0.00 0.00 83 1016.1
20260506061055 66 137 1.0 2.0 0.00 0.00 0.00 82 1016.0
20260506060555 67 144 1.0 2.0 0.00 0.00 0.00 82 1016.0
20260506051055 69 165 2.0 4.0 0.00 0.00 0.00 76 1016.4
20260506050555 70 151 2.0 3.0 0.00 0.00 0.00 75 1016.5
20260506045055 70 141 2.0 3.0 0.00 0.00 0.00 74 1016.7
20260506044558 71 137 2.0 5.0 0.00 0.00 0.00 73 1016.7
20260506044555 71 133 2.0 4.0 0.00 0.00 0.00 73 1016.7
20260506044055 71 137 2.0 5.0 0.00 0.00 0.00 73 1016.7
20260506043555 71 178 2.0 3.0 0.00 0.00 0.00 73 1016.6
20260506043055 71 131 2.0 4.0 0.00 0.00 0.00 72 1016.6
20260506042555 71 137 2.0 4.0 0.00 0.00 0.00 72 1016.7
20260506042055 72 153 3.0 5.0 0.00 0.00 0.00 72 1016.5
20260506041555 72 168 3.0 5.0 0.00 0.00 0.00 72 1016.5
20260506041140 72 157 3.0 6.0 0.00 0.00 0.00 71 1016.4
20260506041055 72 157 3.0 6.0 0.00 0.00 0.00 71 1016.4
20260506040555 72 184 3.0 6.0 0.00 0.00 0.00 71 1016.3
20260506040330 72 149 3.0 6.0 0.00 0.00 0.00 72 1016.4
20260506040055 72 149 3.0 6.0 0.00 0.00 0.00 72 1016.4
20260506035555 72 130 4.0 7.0 0.00 0.00 0.00 71 1016.4
20260506035055 72 155 4.0 7.0 0.00 0.00 0.00 72 1016.4
20260506034555 72 129 4.0 7.0 0.00 0.00 0.00 71 1016.6
20260506034055 72 121 4.0 7.0 0.00 0.00 0.00 71 1016.5
20260506033706 72 150 4.0 6.0 0.00 0.00 0.00 70 1016.5
20260506033555 72 137 4.0 7.0 0.00 0.00 0.00 71 1016.4
20260506033055 72 150 4.0 6.0 0.00 0.00 0.00 70 1016.5
20260506032803 72 126 4.0 8.0 0.00 0.00 0.00 70 1016.4
20260506032555 72 146 4.0 7.0 0.00 0.00 0.00 70 1016.4
20260506032055 72 126 4.0 8.0 0.00 0.00 0.00 70 1016.4
20260506031555 72 117 4.0 7.0 0.00 0.00 0.00 69 1016.4
20260506031211 72 140 5.0 7.0 0.00 0.00 0.00 69 1016.4
20260506031055 72 140 5.0 7.0 0.00 0.00 0.00 69 1016.4
20260506030555 72 129 4.0 9.0 0.00 0.00 0.00 69 1016.5
20260506030420 73 137 5.0 7.0 0.00 0.00 0.00 69 1016.6
20260506030055 73 137 5.0 7.0 0.00 0.00 0.00 69 1016.6
20260506025555 73 135 4.0 8.0 0.00 0.00 0.00 68 1016.4
20260506025055 73 137 4.0 7.0 0.00 0.00 0.00 68 1016.4
20260506024555 73 137 4.0 6.0 0.00 0.00 0.00 67 1016.4
20260506024055 73 133 4.0 8.0 0.00 0.00 0.00 67 1016.4
20260506023555 74 110 5.0 8.0 0.00 0.00 0.00 67 1016.3
20260506023055 74 138 5.0 9.0 0.00 0.00 0.00 66 1016.3
20260506022717 74 134 5.0 9.0 0.00 0.00 0.00 65 1016.3
20260506022555 74 116 6.0 11.0 0.00 0.00 0.00 66 1016.2
20260506022055 74 134 5.0 9.0 0.00 0.00 0.00 65 1016.3
20260506021630 75 167 4.0 7.0 0.00 0.00 0.00 64 1016.2
20260506021555 74 121 4.0 9.0 0.00 0.00 0.00 65 1016.3
20260506021055 75 167 4.0 7.0 0.00 0.00 0.00 64 1016.2
20260506020555 75 119 4.0 9.0 0.00 0.00 0.00 64 1016.2
20260506020553 75 117 4.0 8.0 0.00 0.00 0.00 63 1016.1
20260506020055 75 117 4.0 8.0 0.00 0.00 0.00 63 1016.1
20260506015556 75 140 3.0 6.0 0.00 0.00 0.00 63 1016.1
20260506015510 75 137 4.0 7.0 0.00 0.00 0.00 63 1016.1
20260506015056 75 137 4.0 7.0 0.00 0.00 0.00 63 1016.1
20260506014558 76 142 5.0 9.0 0.00 0.00 0.00 63 1015.9
20260506014556 76 93 5.0 8.0 0.00 0.00 0.00 63 1015.9
20260506014056 76 142 5.0 9.0 0.00 0.00 0.00 63 1015.9
20260506013556 76 124 5.0 9.0 0.00 0.00 0.00 63 1016.0
20260506013511 76 113 4.0 10.0 0.00 0.00 0.00 64 1015.9
20260506013056 76 113 4.0 10.0 0.00 0.00 0.00 64 1015.9
20260506013018 76 171 3.0 7.0 0.00 0.00 0.00 64 1015.8
20260506012556 76 171 3.0 7.0 0.00 0.00 0.00 64 1015.8
20260506012500 76 98 4.0 5.0 0.00 0.00 0.00 63 1015.6
20260506012403 76 98 4.0 5.0 0.00 0.00 0.00 63 1015.6
20260506012056 76 98 4.0 5.0 0.00 0.00 0.00 63 1015.6
20260506012043 76 140 3.0 7.0 0.00 0.00 0.00 63 1015.5
20260506011556 76 107 4.0 9.0 0.00 0.00 0.00 63 1015.6
20260506011056 76 140 3.0 7.0 0.00 0.00 0.00 63 1015.5
20260506010556 76 119 3.0 7.0 0.00 0.00 0.00 63 1015.5
20260506010512 77 59 3.0 4.0 0.00 0.00 0.00 63 1015.4
20260506010056 77 59 3.0 4.0 0.00 0.00 0.00 63 1015.4
20260506005556 77 93 5.0 8.0 0.00 0.00 0.00 62 1015.3
20260506005056 77 128 5.0 9.0 0.00 0.00 0.00 63 1015.1
20260506004556 77 99 5.0 10.0 0.00 0.00 0.00 62 1014.9
20260506004056 77 126 7.0 10.0 0.00 0.00 0.00 62 1014.7
20260506003816 78 126 8.0 14.0 0.00 0.00 0.00 62 1014.6
20260506003556 78 126 8.0 14.0 0.00 0.00 0.00 62 1014.6
20260506003056 78 86 8.0 13.0 0.00 0.00 0.00 62 1014.6
20260506002556 78 124 9.0 14.0 0.00 0.00 0.00 61 1014.3
20260506002404 79 140 8.0 17.0 0.00 0.00 0.00 61 1014.4
20260506002056 79 140 8.0 17.0 0.00 0.00 0.00 61 1014.4
20260506001825 79 134 8.0 15.0 0.00 0.00 0.00 59 1014.0
20260506001556 79 139 8.0 11.0 0.00 0.00 0.00 60 1014.4
20260506001056 79 134 8.0 15.0 0.00 0.00 0.00 59 1014.0
20260506000556 80 139 6.0 13.0 0.00 0.00 0.00 59 1014.0
20260506000056 80 121 6.0 11.0 0.00 0.00 0.00 58 1013.9
20260505235749 81 128 3.0 9.0 0.00 0.00 0.00 57 1013.8
20260505235556 81 110 5.0 10.0 0.00 0.00 0.00 57 1013.8
20260505235056 81 128 3.0 9.0 0.00 0.00 0.00 57 1013.8
20260505234924 81 124 3.0 7.0 0.00 0.00 0.00 56 1013.6
20260505234556 81 124 3.0 7.0 0.00 0.00 0.00 56 1013.6
20260505234511 82 126 3.0 6.0 0.00 0.00 0.00 56 1013.5
20260505234056 82 126 3.0 6.0 0.00 0.00 0.00 56 1013.5
20260505233556 82 105 4.0 6.0 0.00 0.00 0.00 55 1013.5
20260505233331 82 124 5.0 9.0 0.00 0.00 0.00 55 1013.4
20260505233056 82 124 5.0 9.0 0.00 0.00 0.00 55 1013.4
20260505232556 82 137 5.0 10.0 0.00 0.00 0.00 54 1013.6
20260505232056 82 117 5.0 10.0 0.00 0.00 0.00 54 1013.5
20260505231556 83 139 5.0 9.0 0.00 0.00 0.00 53 1013.5
20260505231056 83 90 6.0 11.0 0.00 0.00 0.00 52 1013.5
20260505230556 84 121 5.0 11.0 0.00 0.00 0.00 51 1013.6
20260505230228 85 146 3.0 8.0 0.00 0.00 0.00 47 1013.6
20260505230056 85 146 3.0 8.0 0.00 0.00 0.00 47 1013.6
20260505225556 85 123 2.0 6.0 0.00 0.00 0.00 45 1013.6
20260505225445 85 80 2.0 4.0 0.00 0.00 0.00 44 1013.6
20260505225056 85 80 2.0 4.0 0.00 0.00 0.00 44 1013.6
20260505224556 85 55 3.0 5.0 0.00 0.00 0.00 45 1013.6
20260505224056 85 123 3.0 5.0 0.00 0.00 0.00 44 1013.7
20260505223556 85 137 4.0 4.0 0.00 0.00 0.00 44 1013.7
20260505223404 85 88 4.0 7.0 0.00 0.00 0.00 44 1013.7
20260505223056 85 88 4.0 7.0 0.00 0.00 0.00 44 1013.7
20260505222556 85 71 4.0 8.0 0.00 0.00 0.00 44 1013.9
20260505222521 85 51 3.0 8.0 0.00 0.00 0.00 43 1013.8
20260505222056 85 51 3.0 8.0 0.00 0.00 0.00 43 1013.8
20260505221556 85 83 4.0 6.0 0.00 0.00 0.00 43 1013.8
20260505221336 85 188 5.0 8.0 0.00 0.00 0.00 43 1013.8
20260505221056 85 188 5.0 8.0 0.00 0.00 0.00 43 1013.8
20260505220556 86 128 6.0 10.0 0.00 0.00 0.00 43 1013.6
20260505220505 86 66 4.0 9.0 0.00 0.00 0.00 43 1013.6
20260505220056 86 66 4.0 9.0 0.00 0.00 0.00 43 1013.6
20260505215556 86 80 4.0 8.0 0.00 0.00 0.00 43 1013.6
20260505215056 86 76 5.0 7.0 0.00 0.00 0.00 43 1013.6
20260505214744 86 84 3.0 8.0 0.00 0.00 0.00 43 1013.5
20260505214556 86 101 5.0 9.0 0.00 0.00 0.00 42 1013.6
20260505214056 86 61 4.0 7.0 0.00 0.00 0.00 42 1013.6
20260505213556 86 54 3.0 9.0 0.00 0.00 0.00 42 1013.6
20260505213226 86 84 3.0 8.0 0.00 0.00 0.00 43 1013.5
20260505213056 86 84 3.0 8.0 0.00 0.00 0.00 43 1013.5
20260505212556 86 61 4.0 7.0 0.00 0.00 0.00 42 1013.6
20260505212328 86 116 4.0 7.0 0.00 0.00 0.00 43 1013.5
20260505212056 86 116 4.0 7.0 0.00 0.00 0.00 43 1013.5
20260505211556 86 140 4.0 8.0 0.00 0.00 0.00 43 1013.5
20260505211056 86 119 4.0 8.0 0.00 0.00 0.00 43 1013.7
20260505210556 86 132 4.0 11.0 0.00 0.00 0.00 43 1013.6
20260505210056 87 97 3.0 8.0 0.00 0.00 0.00 42 1013.6
20260505205556 87 137 2.0 6.0 0.00 0.00 0.00 39 1013.6
20260505205306 87 221 2.0 4.0 0.00 0.00 0.00 40 1013.6
20260505205111 86 234 4.0 6.0 0.00 0.00 0.00 41 1013.6
20260505205056 87 221 2.0 4.0 0.00 0.00 0.00 40 1013.6
20260505204556 86 265 3.0 7.0 0.00 0.00 0.00 41 1013.6
20260505204143 86 234 4.0 6.0 0.00 0.00 0.00 41 1013.6
20260505204056 86 234 4.0 6.0 0.00 0.00 0.00 41 1013.6
20260505203812 86 104 6.0 11.0 0.00 0.00 0.00 42 1013.7
20260505203632 86 104 6.0 11.0 0.00 0.00 0.00 42 1013.7
20260505203556 86 104 6.0 11.0 0.00 0.00 0.00 42 1013.7
20260505203239 86 59 5.0 10.0 0.00 0.00 0.00 42 1013.8
20260505203056 86 59 5.0 10.0 0.00 0.00 0.00 42 1013.8
20260505202556 87 168 5.0 10.0 0.00 0.00 0.00 43 1013.9
20260505202147 87 140 4.0 10.0 0.00 0.00 0.00 41 1013.8
20260505202056 87 140 4.0 10.0 0.00 0.00 0.00 41 1013.8
20260505201642 88 55 4.0 8.0 0.00 0.00 0.00 42 1013.8
20260505201556 88 55 4.0 8.0 0.00 0.00 0.00 42 1013.8
20260505201056 88 247 4.0 9.0 0.00 0.00 0.00 41 1013.8
20260505200556 87 182 4.0 9.0 0.00 0.00 0.00 40 1013.9
20260505200056 87 221 6.0 11.0 0.00 0.00 0.00 42 1013.9
20260505195556 87 228 6.0 11.0 0.00 0.00 0.00 43 1013.9
20260505195056 87 202 5.0 11.0 0.00 0.00 0.00 42 1014.0
20260505194556 86 196 5.0 10.0 0.00 0.00 0.00 43 1014.1
20260505194159 86 209 4.0 10.0 0.00 0.00 0.00 43 1014.1
20260505194056 86 209 4.0 10.0 0.00 0.00 0.00 43 1014.1
20260505193556 86 22 7.0 9.0 0.00 0.00 0.00 44 1014.3
20260505193056 86 173 7.0 14.0 0.00 0.00 0.00 44 1014.4
20260505192556 87 187 5.0 11.0 0.00 0.00 0.00 45 1014.4
20260505192150 87 101 5.0 10.0 0.00 0.00 0.00 45 1014.3
20260505192056 87 101 5.0 10.0 0.00 0.00 0.00 45 1014.3
20260505191556 87 64 5.0 10.0 0.00 0.00 0.00 44 1014.5
20260505191315 86 309 5.0 10.0 0.00 0.00 0.00 44 1014.6
20260505191216 86 309 5.0 10.0 0.00 0.00 0.00 44 1014.6
20260505191056 86 309 5.0 10.0 0.00 0.00 0.00 44 1014.6
20260505190556 86 23 6.0 9.0 0.00 0.00 0.00 46 1014.9
20260505190056 86 28 5.0 10.0 0.00 0.00 0.00 46 1014.9
20260505185556 85 23 4.0 8.0 0.00 0.00 0.00 46 1014.9
20260505185145 85 134 5.0 7.0 0.00 0.00 0.00 46 1015.0
20260505185056 85 134 5.0 7.0 0.00 0.00 0.00 46 1015.0
20260505184556 85 110 6.0 10.0 0.00 0.00 0.00 47 1015.1
20260505184324 85 121 5.0 13.0 0.00 0.00 0.00 48 1015.1
20260505184056 85 121 5.0 13.0 0.00 0.00 0.00 48 1015.1
20260505183556 84 178 5.0 7.0 0.00 0.00 0.00 47 1015.0
20260505183056 84 202 6.0 10.0 0.00 0.00 0.00 46 1015.2
20260505182556 84 185 7.0 11.0 0.00 0.00 0.00 47 1015.3
20260505182222 85 153 8.0 14.0 0.00 0.00 0.00 48 1015.3
20260505182056 85 153 8.0 14.0 0.00 0.00 0.00 48 1015.3
20260505181556 85 133 6.0 15.0 0.00 0.00 0.00 48 1015.3
20260505181310 85 182 3.0 8.0 0.00 0.00 0.00 49 1015.4
20260505181056 85 182 3.0 8.0 0.00 0.00 0.00 49 1015.4
20260505180556 84 346 4.0 9.0 0.00 0.00 0.00 49 1015.4
20260505180334 84 117 6.0 12.0 0.00 0.00 0.00 49 1015.4
20260505180056 84 117 6.0 12.0 0.00 0.00 0.00 49 1015.4
20260505175557 83 196 7.0 13.0 0.00 0.00 0.00 49 1015.5
20260505175209 83 130 7.0 11.0 0.00 0.00 0.00 52 1015.5
20260505175057 83 130 7.0 11.0 0.00 0.00 0.00 52 1015.5
20260505174556 83 138 8.0 12.0 0.00 0.00 0.00 52 1015.7
20260505174057 83 135 6.0 13.0 0.00 0.00 0.00 52 1015.8
20260505173749 83 113 6.0 9.0 0.00 0.00 0.00 51 1015.8
20260505173557 83 113 6.0 9.0 0.00 0.00 0.00 51 1015.8
20260505173237 83 87 7.0 15.0 0.00 0.00 0.00 51 1016.0
20260505173057 83 87 7.0 15.0 0.00 0.00 0.00 51 1016.0
20260505172557 83 32 7.0 11.0 0.00 0.00 0.00 52 1016.0
20260505172208 83 77 8.0 11.0 0.00 0.00 0.00 52 1016.1
20260505172057 83 77 8.0 11.0 0.00 0.00 0.00 52 1016.1
20260505171557 82 63 7.0 11.0 0.00 0.00 0.00 54 1016.2
20260505171209 82 83 7.0 13.0 0.00 0.00 0.00 52 1016.2
20260505171057 82 83 7.0 13.0 0.00 0.00 0.00 52 1016.2
20260505170557 82 129 8.0 12.0 0.00 0.00 0.00 52 1016.3
20260505170057 82 146 7.0 19.0 0.00 0.00 0.00 52 1016.1
20260505165557 82 159 6.0 17.0 0.00 0.00 0.00 53 1016.2
20260505165220 82 169 7.0 11.0 0.00 0.00 0.00 51 1016.2
20260505165057 82 169 7.0 11.0 0.00 0.00 0.00 51 1016.2
20260505164557 82 159 6.0 12.0 0.00 0.00 0.00 52 1016.2
20260505164057 82 148 6.0 9.0 0.00 0.00 0.00 53 1016.1
20260505163557 82 123 8.0 13.0 0.00 0.00 0.00 53 1016.2
20260505163239 82 61 8.0 15.0 0.00 0.00 0.00 54 1016.2
20260505163057 82 61 8.0 15.0 0.00 0.00 0.00 54 1016.2
20260505162933 80 150 6.0 9.0 0.00 0.00 0.00 57 1016.3
20260505162557 82 90 7.0 13.0 0.00 0.00 0.00 53 1016.3
20260505162216 81 169 7.0 13.0 0.00 0.00 0.00 53 1016.3
20260505162057 81 169 7.0 13.0 0.00 0.00 0.00 53 1016.3
20260505161557 81 158 6.0 14.0 0.00 0.00 0.00 54 1016.3
20260505161057 80 150 6.0 9.0 0.00 0.00 0.00 57 1016.3
20260505160557 80 151 7.0 10.0 0.00 0.00 0.00 56 1016.3
20260505160205 80 146 7.0 12.0 0.00 0.00 0.00 57 1016.4
20260505153149 80 93 7.0 10.0 0.00 0.00 0.00 56 1016.3
20260505153057 80 93 7.0 10.0 0.00 0.00 0.00 56 1016.3
20260505152557 79 119 7.0 14.0 0.00 0.00 0.00 58 1016.4
20260505152304 80 168 7.0 11.0 0.00 0.00 0.00 58 1016.3
20260505152057 80 168 7.0 11.0 0.00 0.00 0.00 58 1016.3
20260505151557 79 70 8.0 12.0 0.00 0.00 0.00 59 1016.2
20260505151308 79 90 7.0 12.0 0.00 0.00 0.00 59 1016.3
20260505151057 79 90 7.0 12.0 0.00 0.00 0.00 59 1016.3
20260505150557 79 65 7.0 13.0 0.00 0.00 0.00 58 1016.2